TimeCST,TemperatureF,Dew PointF,Humidity,Sea Level PressureIn,VisibilityMPH,Wind Direction,Wind SpeedMPH,Gust SpeedMPH,PrecipitationIn,Events,Conditions,WindDirDegrees,DateUTC
12:15 AM,-21.5,-28.5,70,30.11,10.0,WSW,4.6,-,N/A,,Mostly Cloudy,250,2014-01-07 06:15:00
12:34 AM,-21.1,-28.3,69,30.11,10.0,WSW,4.6,-,N/A,,Mostly Cloudy,250,2014-01-07 06:34:00
12:55 AM,-20.9,-27.6,71,30.11,10.0,WSW,3.5,-,N/A,,Scattered Clouds,240,2014-01-07 06:55:00
1:15 AM,-20.0,-26.9,71,30.11,10.0,West,6.9,-,N/A,,Mostly Cloudy,260,2014-01-07 07:15:00
1:34 AM,-18.6,-25.6,70,30.10,10.0,WSW,5.8,-,N/A,,Overcast,250,2014-01-07 07:34:00
1:55 AM,-18.4,-25.6,70,30.10,10.0,West,4.6,-,N/A,,Overcast,260,2014-01-07 07:55:00
2:15 AM,-18.4,-24.9,72,30.10,10.0,Calm,Calm,-,N/A,,Mostly Cloudy,0,2014-01-07 08:15:00
2:35 AM,-18.4,-25.1,72,30.11,10.0,Calm,Calm,-,N/A,,Mostly Cloudy,0,2014-01-07 08:35:00
2:55 AM,-18.4,-24.7,73,30.11,10.0,Calm,Calm,-,N/A,,Mostly Cloudy,0,2014-01-07 08:55:00
3:14 AM,-18.9,-25.4,72,30.11,10.0,Calm,Calm,-,N/A,,Mostly Cloudy,0,2014-01-07 09:14:00
3:35 AM,-20.2,-26.5,73,30.09,10.0,SSW,3.5,-,N/A,,Scattered Clouds,210,2014-01-07 09:35:00
3:54 AM,-19.8,-26.0,73,30.09,10.0,Calm,Calm,-,N/A,,Scattered Clouds,0,2014-01-07 09:54:00
4:15 AM,-19.7,-25.6,74,30.09,10.0,Calm,Calm,-,N/A,,Scattered Clouds,0,2014-01-07 10:15:00
4:35 AM,-19.7,-25.6,74,30.09,10.0,Calm,Calm,-,N/A,,Clear,0,2014-01-07 10:35:00
4:54 AM,-19.8,-25.6,75,30.09,10.0,Calm,Calm,-,N/A,,Clear,0,2014-01-07 10:54:00
5:15 AM,-20.4,-26.5,73,30.09,10.0,Calm,Calm,-,N/A,,Scattered Clouds,0,2014-01-07 11:15:00
5:35 AM,-21.1,-26.5,76,30.09,10.0,Calm,Calm,-,N/A,,Scattered Clouds,0,2014-01-07 11:35:00
5:54 AM,-21.1,-26.7,75,30.08,10.0,Calm,Calm,-,N/A,,Scattered Clouds,0,2014-01-07 11:54:00
6:15 AM,-24.3,-29.4,77,30.09,10.0,Calm,Calm,-,N/A,,Mostly Cloudy,0,2014-01-07 12:15:00
6:35 AM,-22.0,-27.4,76,30.09,10.0,Calm,Calm,-,N/A,,Scattered Clouds,0,2014-01-07 12:35:00
6:55 AM,-22.0,-27.6,75,30.09,10.0,Calm,Calm,-,N/A,,Scattered Clouds,0,2014-01-07 12:55:00
7:15 AM,-20.4,-25.8,76,30.09,10.0,Calm,Calm,-,N/A,,Mostly Cloudy,0,2014-01-07 13:15:00
7:35 AM,-20.4,-26.3,74,30.09,10.0,Calm,Calm,-,N/A,,Mostly Cloudy,0,2014-01-07 13:35:00
7:55 AM,-19.7,-25.2,75,30.10,10.0,Calm,Calm,-,N/A,,Scattered Clouds,0,2014-01-07 13:55:00
8:15 AM,-19.5,-24.9,76,30.10,10.0,Calm,Calm,-,N/A,,Scattered Clouds,0,2014-01-07 14:15:00
8:34 AM,-18.0,-23.3,77,30.11,10.0,Calm,Calm,-,N/A,,Scattered Clouds,0,2014-01-07 14:34:00
8:55 AM,-16.8,-22.0,77,30.11,10.0,Calm,Calm,-,N/A,,Scattered Clouds,0,2014-01-07 14:55:00
9:15 AM,-14.8,-20.2,77,30.13,10.0,Calm,Calm,-,N/A,,Clear,0,2014-01-07 15:15:00
9:34 AM,-13.2,-18.4,77,30.13,10.0,WSW,4.6,-,N/A,,Scattered Clouds,240,2014-01-07 15:34:00
9:55 AM,-11.6,-17.7,74,30.14,10.0,WSW,4.6,-,N/A,,Clear,240,2014-01-07 15:55:00
10:15 AM,-10.3,-17.9,69,30.14,10.0,WSW,3.5,-,N/A,,Clear,240,2014-01-07 16:15:00
10:34 AM,-9.2,-17.5,67,30.15,10.0,WSW,3.5,-,N/A,,Clear,240,2014-01-07 16:34:00
10:55 AM,-7.2,-16.6,64,30.14,10.0,Calm,Calm,-,N/A,,Scattered Clouds,0,2014-01-07 16:55:00
11:15 AM,-5.8,-16.1,61,30.14,10.0,West,4.6,-,N/A,,Scattered Clouds,270,2014-01-07 17:15:00
11:34 AM,-4.4,-15.5,59,30.13,10.0,West,5.8,-,N/A,,Clear,270,2014-01-07 17:34:00
11:55 AM,-3.8,-15.0,59,30.12,10.0,West,4.6,-,N/A,,Scattered Clouds,260,2014-01-07 17:55:00
12:15 PM,-3.8,-14.3,61,30.11,10.0,WSW,4.6,-,N/A,,Scattered Clouds,250,2014-01-07 18:15:00
12:34 PM,-2.9,-13.9,59,30.10,10.0,WSW,5.8,-,N/A,,Scattered Clouds,240,2014-01-07 18:34:00
12:55 PM,-3.3,-14.1,60,30.09,10.0,SW,4.6,-,N/A,,Scattered Clouds,230,2014-01-07 18:55:00
1:15 PM,-1.8,-13.2,59,30.10,10.0,WSW,4.6,-,N/A,,Scattered Clouds,240,2014-01-07 19:15:00
1:34 PM,-1.5,-13.4,57,30.10,10.0,West,3.5,-,N/A,,Scattered Clouds,260,2014-01-07 19:34:00
1:55 PM,-0.6,-13.2,55,30.10,10.0,WSW,4.6,-,N/A,,Scattered Clouds,240,2014-01-07 19:55:00
2:15 PM,-0.2,-12.8,55,30.12,10.0,WSW,4.6,-,N/A,,Clear,250,2014-01-07 20:15:00
2:35 PM,0.5,-11.6,57,30.11,10.0,WSW,6.9,-,N/A,,Clear,250,2014-01-07 20:35:00
2:55 PM,-0.6,-11.4,60,30.12,10.0,West,5.8,-,N/A,,Clear,260,2014-01-07 20:55:00
3:14 PM,-0.0,-11.0,60,30.13,10.0,West,5.8,-,N/A,,Clear,260,2014-01-07 21:14:00
3:35 PM,-0.6,-11.2,61,30.13,10.0,West,5.8,-,N/A,,Clear,260,2014-01-07 21:35:00
3:55 PM,-1.3,-11.4,62,30.14,10.0,WSW,6.9,-,N/A,,Clear,250,2014-01-07 21:55:00
4:14 PM,-1.5,-11.2,63,30.14,10.0,West,4.6,-,N/A,,Clear,260,2014-01-07 22:14:00
4:35 PM,-1.5,-11.2,63,30.15,10.0,WSW,5.8,-,N/A,,Clear,250,2014-01-07 22:35:00
4:55 PM,-1.7,-11.2,64,30.15,10.0,WSW,5.8,-,N/A,,Clear,250,2014-01-07 22:55:00
5:14 PM,-1.8,-11.2,64,30.15,10.0,West,3.5,-,N/A,,Clear,260,2014-01-07 23:14:00
5:35 PM,-1.7,-11.0,64,30.15,10.0,West,3.5,-,N/A,,Clear,260,2014-01-07 23:35:00
5:55 PM,-1.7,-10.8,65,30.16,10.0,Calm,Calm,-,N/A,,Clear,0,2014-01-07 23:55:00
6:14 PM,-1.8,-10.8,66,30.16,10.0,Calm,Calm,-,N/A,,Clear,0,2014-01-08 00:14:00
6:35 PM,-2.4,-11.2,66,30.17,10.0,Calm,Calm,-,N/A,,Clear,0,2014-01-08 00:35:00
6:55 PM,-2.9,-11.2,68,30.17,10.0,Calm,Calm,-,N/A,,Clear,0,2014-01-08 00:55:00
7:14 PM,-4.4,-12.3,69,30.18,10.0,Calm,Calm,-,N/A,,Clear,0,2014-01-08 01:14:00
7:35 PM,-4.9,-11.9,72,30.18,10.0,Calm,Calm,-,N/A,,Clear,0,2014-01-08 01:35:00
7:55 PM,-5.3,-12.1,72,30.19,10.0,Calm,Calm,-,N/A,,Clear,0,2014-01-08 01:55:00
8:15 PM,-7.8,-14.3,73,30.19,10.0,Calm,Calm,-,N/A,,Clear,0,2014-01-08 02:15:00
8:35 PM,-9.2,-14.6,77,30.19,10.0,Calm,Calm,-,N/A,,Scattered Clouds,0,2014-01-08 02:35:00
8:54 PM,-9.4,-14.1,80,30.21,10.0,Calm,Calm,-,N/A,,Scattered Clouds,0,2014-01-08 02:54:00
9:15 PM,-12.5,-17.1,80,30.19,10.0,Calm,Calm,-,N/A,,Mostly Cloudy,0,2014-01-08 03:15:00
9:35 PM,-12.5,-16.8,81,30.21,10.0,Calm,Calm,-,N/A,,Scattered Clouds,0,2014-01-08 03:35:00
9:54 PM,-12.1,-15.9,83,30.21,10.0,Calm,Calm,-,N/A,,Mostly Cloudy,0,2014-01-08 03:54:00
10:15 PM,-13.2,-17.5,81,30.22,10.0,Calm,Calm,-,N/A,,Overcast,0,2014-01-08 04:15:00
10:35 PM,-11.6,-15.9,81,30.22,10.0,Calm,Calm,-,N/A,,Overcast,0,2014-01-08 04:35:00
10:54 PM,-13.5,-18.4,79,30.23,10.0,Calm,Calm,-,N/A,,Overcast,0,2014-01-08 04:54:00
11:15 PM,-14.4,-19.1,79,30.23,10.0,Calm,Calm,-,N/A,,Mostly Cloudy,0,2014-01-08 05:15:00
11:35 PM,-13.9,-18.6,80,30.23,10.0,Calm,Calm,-,N/A,,Mostly Cloudy,0,2014-01-08 05:35:00
11:54 PM,-13.9,-18.6,80,30.24,10.0,Calm,Calm,-,N/A,,Overcast,0,2014-01-08 05:54:00